DELTA 1 DEB, 18469

Orbit data source: Space-Track

DELTA 1 DEB, 18469 is space debris in SSO originally from a launch on Sun, 05 Mar 1978 UTC launched from the Air Force Western Test Range (AFWTR). Debris objects in space refer to the collection of defunct objects orbiting the Earth. Examples of debris include non-operational satellites, rocket bodies, and fragments generated from explosions, collisions, or faulty payload assembly.

Loading next visibility...
Identifier
18469, 1978-026HF
Orbit
SSO
Country
Flag of USUS
Related business
Manufacturer
Unknown
Mission
Spacecraft
Bus & Motor
Unknown
Mass
Unknown
Launch date (UTC)
1978-03-05 (48 years ago)
Launch vehicle
Unknown
Launch site
Air Force Western Test Range (AFWTR)
Object type
Payload
Rocket body
Debris
Shape & HBR
Unknown shape, 0.1 m
Radar Cross Section
Small (<0.1 m²)

Expand to show TLE details & history
Last TLE update: 2 days ago

TLE from 2 days ago
0 DELTA 1 DEB
1 18469U 78026HF  26171.10695696 -.00000034  00000-0  62039-5 0  9993
2 18469  98.8976 120.4163 0045666 189.0268 235.8861 13.97787947105994
Epoch: 2026-06-20T02:34Z
TLE epoch observation values (Epoch: 2026-06-20T02:34:01.081Z)
Latitude
63.16385°
Longitude
155.65753°
Altitude
931.028 km
Speed
7.383 km/s
True Right ascension
06h 49m 57s
True Declination
63° 01' 42"
Sunlit
Object was in daylight at epoch
Visualization orbit readout
Latitude
Unknown
Longitude
Unknown
Altitude
Unknown
Speed
Unknown
Apparent Right ascension
Unknown
Apparent Declination
Unknown
Sunlit
N/A
Visualization observer readout
Local Sidereal Time
00:39:44
Azimuth
Unknown
Elevation
Unknown
Doppler factor
Unknown
Orbital elements
Apogee altitude
931.893 km
Perigee altitude
865.432 km
Semi-major axis
7,276.799 km
Eccentricity
0.00457
Inclination
98.8976°
RAAN
120.4163°
Arg. of periapsis
189.0268°
True anomaly
235.45424°
Mean anomaly
235.8861°
Eccentric anomaly
235.67003°
Mean motion
3.49649 °/min
Orbital period
102.96 mins
BSTAR
0.0000062039
Loading maneuver chart data...
Computing Atmospheric mass density...
Loading historical data...
Loading historical data...
Loading historical data...
Loading historical data...
Loading historical data...
Loading historical data...
Loading historical data...

Documentation

Showing up to 5 results
|